When you browse on this site, cookies collect data to enhance your experience and personalize the content and advertising you see.
Visit our Privacy Policy to learn more. By continuing to use the site, you agree to this use of cookies and data.
EN

Hourly Weather Gorlovka

Today, 11 July, Saturday

Time Temperature Precipitation Wind Pressure Humidity
00:00 +18°C° 0 mm 2 mps 741 mmHg 62%
01:00 +18°C° 0 mm 2 mps 741 mmHg 64%
02:00 +18°C° 0 mm 2 mps 741 mmHg 66%
03:00 +17°C° 0 mm 2 mps 741 mmHg 68%
04:00 +17°C° 0 mm 2 mps 741 mmHg 69%
05:00 +17°C° 0 mm 2 mps 741 mmHg 70%
06:00 +17°C° 0 mm 2 mps 741 mmHg 70%
07:00 +19°C° 0 mm 3 mps 742 mmHg 65%
08:00 +21°C° 0 mm 3 mps 742 mmHg 59%
09:00 +24°C° 0 mm 3 mps 742 mmHg 53%
10:00 +25°C° 0 mm 3 mps 742 mmHg 49%
11:00 +26°C° 0 mm 3 mps 742 mmHg 45%
12:00 +27°C° 0 mm 4 mps 741 mmHg 40%
13:00 +28°C° 0 mm 4 mps 741 mmHg 39%
14:00 +28°C° 0 mm 4 mps 741 mmHg 37%
15:00 +29°C° 0 mm 4 mps 741 mmHg 35%
16:00 +29°C° 0 mm 4 mps 740 mmHg 37%
17:00 +28°C° 0 mm 4 mps 740 mmHg 39%
18:00 +28°C° 0 mm 4 mps 739 mmHg 41%
19:00 +26°C° 0 mm 4 mps 739 mmHg 47%
20:00 +24°C° 0 mm 3 mps 739 mmHg 52%
21:00 +22°C° 0 mm 3 mps 739 mmHg 58%
22:00 +21°C° 0 mm 3 mps 739 mmHg 61%
23:00 +20°C° 0 mm 3 mps 739 mmHg 64%

Tomorrow, 12 July, Sunday

Time Temperature Precipitation Wind Pressure Humidity
00:00 +20°C° 0 mm 3 mps 738 mmHg 67%
01:00 +19°C° 0 mm 3 mps 738 mmHg 69%
02:00 +19°C° 0 mm 3 mps 738 mmHg 71%
03:00 +18°C° 0 mm 4 mps 738 mmHg 73%
04:00 +18°C° 0 mm 4 mps 737 mmHg 74%
05:00 +18°C° 0 mm 4 mps 737 mmHg 76%
06:00 +19°C° 0 mm 4 mps 737 mmHg 77%
07:00 +21°C° 0 mm 4 mps 737 mmHg 73%
08:00 +23°C° 0 mm 4 mps 737 mmHg 69%
09:00 +26°C° 0 mm 4 mps 737 mmHg 65%
10:00 +27°C° 0 mm 4 mps 736 mmHg 60%
11:00 +29°C° 0 mm 4 mps 736 mmHg 55%
12:00 +32°C° 0 mm 4 mps 736 mmHg 50%
13:00 +32°C° 0 mm 4 mps 735 mmHg 48%
14:00 +33°C° 0 mm 3 mps 735 mmHg 46%
15:00 +33°C° 0 mm 3 mps 735 mmHg 43%
16:00 +33°C° 0 mm 3 mps 734 mmHg 44%
17:00 +33°C° 0 mm 3 mps 734 mmHg 45%
18:00 +31°C° 0 mm 3 mps 733 mmHg 45%
19:00 +29°C° 0.8 mm 3 mps 733 mmHg 55%
20:00 +26°C° 0.8 mm 3 mps 733 mmHg 66%
21:00 +24°C° 0.8 mm 2 mps 733 mmHg 76%
22:00 +23°C° 1.8 mm 2 mps 733 mmHg 79%
23:00 +23°C° 1.8 mm 2 mps 733 mmHg 82%

Day after tomorrow, 13 July, Monday

Time Temperature Precipitation Wind Pressure Humidity
00:00 +21°C° 1.8 mm 2 mps 732 mmHg 85%
01:00 +21°C° 0.3 mm 2 mps 732 mmHg 86%
02:00 +21°C° 0.3 mm 2 mps 732 mmHg 87%
03:00 +21°C° 0.3 mm 3 mps 731 mmHg 88%
04:00 +21°C° 0 mm 2 mps 731 mmHg 87%
05:00 +21°C° 0 mm 2 mps 731 mmHg 87%
06:00 +22°C° 0 mm 1 mps 730 mmHg 86%
07:00 +23°C° 0 mm 1 mps 730 mmHg 80%
08:00 +25°C° 0 mm 1 mps 730 mmHg 74%
09:00 +26°C° 0 mm 1 mps 730 mmHg 68%
10:00 +27°C° 0 mm 1 mps 730 mmHg 63%
11:00 +28°C° 0 mm 1 mps 730 mmHg 58%
12:00 +30°C° 0 mm 1 mps 730 mmHg 52%
13:00 +30°C° 0 mm 1 mps 730 mmHg 50%
14:00 +31°C° 0 mm 2 mps 730 mmHg 48%
15:00 +32°C° 0 mm 2 mps 730 mmHg 45%
16:00 +31°C° 0.8 mm 2 mps 729 mmHg 49%
17:00 +30°C° 0.8 mm 2 mps 729 mmHg 52%
18:00 +30°C° 0.8 mm 2 mps 728 mmHg 55%
19:00 +27°C° 4.2 mm 2 mps 729 mmHg 64%
20:00 +24°C° 4.2 mm 2 mps 729 mmHg 73%
21:00 +21°C° 4.2 mm 2 mps 729 mmHg 82%
22:00 +22°C° 0.8 mm 1 mps 729 mmHg 83%
23:00 +21°C° 0.8 mm 1 mps 729 mmHg 85%

14 July, Tuesday

Time Temperature Precipitation Wind Pressure Humidity
00:00 +21°C° 0.8 mm 1 mps 729 mmHg 87%
01:00 +20°C° 0.1 mm 2 mps 729 mmHg 88%
02:00 +19°C° 0.1 mm 2 mps 729 mmHg 90%
03:00 +19°C° 0.1 mm 2 mps 729 mmHg 92%
04:00 +19°C° 0 mm 2 mps 729 mmHg 92%
05:00 +19°C° 0 mm 3 mps 729 mmHg 92%
06:00 +20°C° 0 mm 3 mps 729 mmHg 92%
07:00 +20°C° 0.1 mm 3 mps 730 mmHg 91%
08:00 +19°C° 0.1 mm 4 mps 730 mmHg 89%
09:00 +19°C° 0.1 mm 4 mps 730 mmHg 88%
10:00 +20°C° 0 mm 4 mps 731 mmHg 85%
11:00 +20°C° 0 mm 5 mps 731 mmHg 82%
12:00 +21°C° 0 mm 5 mps 731 mmHg 79%
13:00 +21°C° 0 mm 5 mps 731 mmHg 76%
14:00 +21°C° 0 mm 5 mps 731 mmHg 74%
15:00 +22°C° 0 mm 6 mps 732 mmHg 71%
16:00 +21°C° 0 mm 6 mps 732 mmHg 72%
17:00 +21°C° 0 mm 6 mps 732 mmHg 72%
18:00 +20°C° 0 mm 6 mps 732 mmHg 73%
19:00 +19°C° 0 mm 6 mps 732 mmHg 75%
20:00 +17°C° 0 mm 5 mps 732 mmHg 78%
21:00 +17°C° 0 mm 5 mps 733 mmHg 80%
22:00 +16°C° 0 mm 5 mps 733 mmHg 83%
23:00 +16°C° 0 mm 5 mps 733 mmHg 85%

15 July, Wednesday

Time Temperature Precipitation Wind Pressure Humidity
00:00 +15°C° 0 mm 5 mps 733 mmHg 88%
01:00 +15°C° 0 mm 5 mps 733 mmHg 87%
02:00 +15°C° 0 mm 5 mps 733 mmHg 87%
03:00 +15°C° 0 mm 5 mps 733 mmHg 86%
04:00 +15°C° 0 mm 5 mps 734 mmHg 85%
05:00 +15°C° 0 mm 5 mps 734 mmHg 85%
06:00 +15°C° 0 mm 5 mps 734 mmHg 84%
07:00 +16°C° 0 mm 5 mps 735 mmHg 80%
08:00 +17°C° 0 mm 5 mps 735 mmHg 75%
09:00 +19°C° 0 mm 4 mps 736 mmHg 71%
10:00 +20°C° 0 mm 5 mps 736 mmHg 64%
11:00 +22°C° 0 mm 5 mps 736 mmHg 57%
12:00 +23°C° 0 mm 5 mps 736 mmHg 51%
13:00 +25°C° 0 mm 5 mps 736 mmHg 48%
14:00 +25°C° 0 mm 5 mps 736 mmHg 46%
15:00 +26°C° 0 mm 5 mps 736 mmHg 44%
16:00 +25°C° 0 mm 5 mps 736 mmHg 45%
17:00 +25°C° 0 mm 5 mps 736 mmHg 46%
18:00 +25°C° 0 mm 4 mps 736 mmHg 47%
19:00 +22°C° 0 mm 3 mps 737 mmHg 52%
20:00 +21°C° 0 mm 3 mps 737 mmHg 57%
21:00 +19°C° 0 mm 2 mps 737 mmHg 62%
22:00 +20°C° 0 mm 1 mps 737 mmHg 63%
23:00 +19°C° 0 mm 1 mps 737 mmHg 65%

16 July, Thursday

Time Temperature Precipitation Wind Pressure Humidity
00:00 +18°C° 0 mm 1 mps 737 mmHg 66%
01:00 +18°C° 0 mm 1 mps 737 mmHg 66%
02:00 +15°C° 0 mm 0 mps 737 mmHg 66%
03:00 +15°C° 0 mm 0 mps 737 mmHg 66%
04:00 +15°C° 0 mm 0 mps 737 mmHg 66%
05:00 +16°C° 0 mm 0 mps 737 mmHg 66%
06:00 +16°C° 0 mm 0 mps 737 mmHg 66%
07:00 +18°C° 0 mm 0 mps 737 mmHg 60%
08:00 +20°C° 0 mm 0 mps 737 mmHg 55%
09:00 +21°C° 0 mm 0 mps 738 mmHg 50%
10:00 +24°C° 0 mm 1 mps 737 mmHg 47%
11:00 +25°C° 0 mm 1 mps 737 mmHg 45%
12:00 +25°C° 0 mm 1 mps 737 mmHg 42%
13:00 +25°C° 0 mm 2 mps 737 mmHg 42%
14:00 +25°C° 0 mm 2 mps 737 mmHg 42%
15:00 +25°C° 0 mm 2 mps 737 mmHg 42%
16:00 +25°C° 0 mm 2 mps 736 mmHg 42%
17:00 +25°C° 0 mm 2 mps 736 mmHg 41%
18:00 +25°C° 0 mm 2 mps 736 mmHg 41%
19:00 +24°C° 0 mm 1 mps 736 mmHg 45%
20:00 +22°C° 0 mm 1 mps 736 mmHg 50%
21:00 +21°C° 0 mm 1 mps 736 mmHg 54%
22:00 +20°C° 0 mm 1 mps 736 mmHg 55%
23:00 +20°C° 0 mm 1 mps 736 mmHg 56%
Show more